This demonstration page uses our WeatherBlox Daily Observations layout. Learn more.

Left ArrowRight Arrow

34.74481, -87.66753

Hourly Observations for June 13, 2017

Temp ( °F °C ) Dew Point ( °F °C ) Humidity (%) Winds ( mph kmh ) Pressure ( in mb ) Visibility ( mi km ) Precip ( " mm )
12:53 am 00:53 Clear 76 24.4 67 19.4 74 74 S 6 9 30.06 1018 10 16 0.00 0.00
1:53 am 01:53 Clear 73 22.8 66 18.9 79 79 Calm 30.06 1018 10 16 0.00 0.00
2:53 am 02:53 Clear 71 21.7 66 18.9 84 84 Calm 30.05 1018 10 16 0.00 0.00
3:53 am 03:53 Clear 69 20.6 66 18.9 90 90 Calm 30.06 1018 10 16 0.00 0.00
4:53 am 04:53 Mostly Clear 69 20.6 66 18.9 90 90 SE 3 6 30.07 1018 10 16 0.00 0.00
5:08 am 05:08 Mostly Cloudy 70 21.1 66 18.9 87 87 ESE 5 7 30.06 1018 10 16 0.00 0.00
5:40 am 05:40 Partly Cloudy 70 21.1 66 18.9 87 87 SE 3 6 30.09 1019 10 16 0.00 0.00
5:53 am 05:53 Sunny 69 20.6 66 18.9 90 90 ESE 3 6 30.09 1019 10 16 0.00 0.00
6:41 am 06:41 Partly Cloudy 71 21.7 68 20 90 90 SE 3 6 30.09 1019 10 16 0.00 0.00
6:50 am 06:50 Mostly Cloudy 72 22 68 20 88 88 SSE 5 7 30.09 1019 10 16 0.00 0.00
6:53 am 06:53 Mostly Cloudy 72 22.2 68 20 87 87 SE 5 7 30.11 1020 10 16 0.00 0.00
7:53 am 07:53 Mostly Cloudy 74 23.3 69 20.6 85 85 S 5 7 30.12 1020 10 16 0.00 0.00
8:41 am 08:41 Partly Cloudy 78 25.6 70 21.1 76 76 SSW 7 11 30.12 1020 10 16 0.00 0.00
8:53 am 08:53 Mostly Sunny 79 26.1 70 21.1 74 74 Calm 30.12 1020 10 16 0.00 0.00
9:39 am 09:39 Mostly Cloudy 82 27.8 70 21.1 67 67 SSW 7 11 30.12 1020 10 16 0.00 0.00
9:53 am 09:53 Mostly Cloudy 81 27.2 70 21.1 69 69 SSE 5 7 30.11 1020 10 16 0.00 0.00
10:53 am 10:53 Mostly Sunny 84 28.9 69 20.6 61 61 S 5 7 30.10 1019 10 16 0.00 0.00
11:27 am 11:27 Hazy 85 29.4 69 20.6 59 59 SSW 9 15 30.09 1019 3 5 0.00 0.00
11:53 am 11:53 Partly Cloudy 86 30 68 20 55 55 S 8 13 30.09 1019 10 16 0.00 0.00
12:53 pm 12:53 Mostly Cloudy 87 30.6 67 19.4 51 51 S 8 13 30.07 1018 10 16 0.00 0.00
1:53 pm 13:53 Mostly Sunny 89 31.7 66 18.9 47 47 VRB 5 7 30.04 1017 10 16 0.00 0.00
2:53 pm 14:53 Mostly Cloudy 88 31.1 66 18.9 48 48 S 6 9 30.02 1017 10 16 0.00 0.00
3:53 pm 15:53 Partly Cloudy 91 32.8 66 18.9 44 44 SSW 8 13 30.00 1016 10 16 0.00 0.00
4:53 pm 16:53 Mostly Sunny 90 32.2 66 18.9 45 45 SSW 6 9 29.99 1016 10 16 0.00 0.00
5:53 pm 17:53 Mostly Sunny 89 31.7 66 18.9 47 47 S 7 11 29.99 1016 10 16 0.00 0.00
6:53 pm 18:53 Sunny 87 30.6 66 18.9 50 50 S 6 9 30.00 1016 10 16 0.00 0.00
7:53 pm 19:53 Sunny 84 28.9 68 20 59 59 S 5 7 30.01 1016 10 16 0.00 0.00
8:53 pm 20:53 Clear 77 25 68 20 74 74 SE 3 6 30.01 1016 10 16 0.00 0.00
9:53 pm 21:53 Clear 75 23.9 68 20 79 79 Calm 30.01 1016 10 16 0.00 0.00
10:53 pm 22:53 Clear 73 22.8 68 20 84 84 Calm 30.00 1016 10 16 0.00 0.00
11:53 pm 23:53 Clear 73 22.8 67 19.4 81 81 Calm 30.01 1016 10 16 0.00 0.00

Powered by AerisWeather